| time (UTC) | temp F | wind direction | speed knots | gust knots | rain 1hr in | rain 24hr in | rain mn in | humidity % | barometer mb |
| 20260505201512 | 79 | 160 | 8.7 | 17.4 | 0.00 | 0.00 | 0.00 | 38 | 1009.0 |
| 20260505200025 | 79 | 158 | 7.8 | 19.1 | 0.00 | 0.00 | 0.00 | 37 | 1009.0 |
| 20260505193019 | 79 | 165 | 7.0 | 16.5 | 0.00 | 0.00 | 0.00 | 41 | 1009.3 |
| 20260505191512 | 80 | 163 | 7.8 | 15.6 | 0.00 | 0.00 | 0.00 | 42 | 1009.5 |
| 20260505190016 | 79 | 192 | 8.7 | 16.5 | 0.00 | 0.00 | 0.00 | 39 | 1009.8 |
| 20260505184517 | 79 | 175 | 8.7 | 19.1 | 0.00 | 0.00 | 0.00 | 39 | 1009.9 |
| 20260505183004 | 79 | 172 | 7.8 | 15.6 | 0.00 | 0.00 | 0.00 | 40 | 1010.1 |
| 20260505181510 | 79 | 166 | 6.1 | 14.8 | 0.00 | 0.00 | 0.00 | 43 | 1010.2 |
| 20260505180009 | 79 | 179 | 8.7 | 18.2 | 0.00 | 0.00 | 0.00 | 42 | 1010.5 |
| 20260505174505 | 78 | 166 | 8.7 | 13.9 | 0.00 | 0.00 | 0.00 | 40 | 1010.6 |
| 20260505173037 | 78 | 183 | 5.2 | 13.0 | 0.00 | 0.00 | 0.00 | 44 | 1010.6 |
| 20260505171509 | 78 | 187 | 9.6 | 16.5 | 0.00 | 0.00 | 0.00 | 42 | 1010.7 |
| 20260505170013 | 78 | 171 | 8.7 | 14.8 | 0.00 | 0.00 | 0.00 | 44 | 1011.0 |
| 20260505164529 | 78 | 171 | 0.0 | 0.0 | 0.00 | 0.00 | 0.00 | 46 | 1011.2 |
| 20260505163013 | 78 | 163 | 0.0 | 0.0 | 0.00 | 0.00 | 0.00 | 48 | 1011.2 |
| 20260505153016 | 76 | 219 | 0.0 | 0.0 | 0.00 | 0.00 | 0.00 | 52 | 1011.5 |
| 20260505151519 | 75 | 169 | 0.0 | 0.9 | 0.00 | 0.00 | 0.00 | 53 | 1011.4 |
| 20260505124525 | 63 | 188 | 4.3 | 8.7 | 0.00 | 0.00 | 0.00 | 67 | 1012.5 |
| 20260505123020 | 62 | 183 | 3.5 | 11.3 | 0.00 | 0.00 | 0.00 | 68 | 1012.5 |
| 20260505121514 | 61 | 176 | 3.5 | 7.0 | 0.00 | 0.00 | 0.00 | 71 | 1012.3 |
| 20260505120019 | 60 | 180 | 3.5 | 8.7 | 0.00 | 0.00 | 0.00 | 72 | 1012.1 |
| 20260505114531 | 59 | 151 | 2.6 | 6.1 | 0.00 | 0.00 | 0.00 | 74 | 1012.0 |
| 20260505111530 | 58 | 160 | 1.7 | 5.2 | 0.00 | 0.00 | 0.00 | 75 | 1011.8 |
| 20260505101519 | 56 | 199 | 2.6 | 4.3 | 0.00 | 0.00 | 0.00 | 75 | 1011.1 |
| 20260505100020 | 56 | 168 | 2.6 | 4.3 | 0.00 | 0.00 | 0.00 | 75 | 1011.0 |
| 20260505094521 | 57 | 167 | 3.5 | 5.2 | 0.00 | 0.00 | 0.00 | 74 | 1011.0 |
| 20260505093005 | 57 | 166 | 2.6 | 6.1 | 0.00 | 0.00 | 0.00 | 74 | 1010.9 |
| 20260505083034 | 58 | 159 | 3.5 | 5.2 | 0.00 | 0.00 | 0.00 | 72 | 1010.9 |
| 20260505081503 | 58 | 151 | 1.7 | 5.2 | 0.00 | 0.00 | 0.00 | 72 | 1010.9 |
| 20260505073010 | 59 | 160 | 2.6 | 4.3 | 0.00 | 0.00 | 0.00 | 70 | 1010.6 |
| 20260505071510 | 59 | 149 | 1.7 | 3.5 | 0.00 | 0.00 | 0.00 | 70 | 1010.6 |
| 20260505064508 | 59 | 175 | 0.9 | 2.6 | 0.00 | 0.00 | 0.00 | 69 | 1010.6 |
| 20260505063015 | 60 | 176 | 0.9 | 2.6 | 0.00 | 0.00 | 0.00 | 69 | 1010.8 |
| 20260505061525 | 60 | 183 | 1.7 | 3.5 | 0.00 | 0.00 | 0.00 | 68 | 1010.9 |
| 20260505060010 | 60 | 170 | 1.7 | 4.3 | 0.00 | 0.00 | 0.00 | 68 | 1010.9 |
| 20260505053011 | 59 | 160 | 1.7 | 4.3 | 0.00 | 0.00 | 0.00 | 67 | 1010.8 |
| 20260505051512 | 59 | 159 | 1.7 | 4.3 | 0.00 | 0.00 | 0.00 | 67 | 1010.8 |
| 20260505034519 | 60 | 155 | 2.6 | 6.1 | 0.00 | 0.00 | 0.00 | 63 | 1010.4 |
| 20260505033026 | 60 | 163 | 3.5 | 6.1 | 0.00 | 0.00 | 0.00 | 63 | 1010.4 |
| 20260505030011 | 60 | 157 | 2.6 | 5.2 | 0.00 | 0.00 | 0.00 | 63 | 1010.5 |
| 20260505024520 | 60 | 159 | 2.6 | 4.3 | 0.00 | 0.00 | 0.00 | 64 | 1010.6 |
| 20260505023014 | 59 | 162 | 1.7 | 4.3 | 0.00 | 0.00 | 0.00 | 65 | 1010.6 |
| 20260505021526 | 59 | 152 | 1.7 | 4.3 | 0.00 | 0.00 | 0.00 | 64 | 1010.4 |
| 20260505020008 | 60 | 147 | 1.7 | 4.3 | 0.00 | 0.00 | 0.00 | 64 | 1010.4 |
| 20260505013013 | 61 | 155 | 0.9 | 4.3 | 0.00 | 0.00 | 0.00 | 60 | 1010.5 |
| 20260505011513 | 61 | 147 | 1.7 | 5.2 | 0.00 | 0.00 | 0.00 | 59 | 1010.1 |
| 20260505004510 | 62 | 152 | 1.7 | 5.2 | 0.00 | 0.00 | 0.00 | 59 | 1009.8 |
| 20260505003007 | 62 | 145 | 1.7 | 4.3 | 0.00 | 0.00 | 0.00 | 58 | 1009.8 |
| 20260505001519 | 63 | 165 | 2.6 | 5.2 | 0.00 | 0.00 | 0.00 | 56 | 1009.8 |
| 20260505000021 | 64 | 140 | 2.6 | 6.1 | 0.00 | 0.00 | 0.00 | 56 | 1009.8 |
| 20260504234512 | 65 | 159 | 1.7 | 5.2 | 0.00 | 0.00 | 0.00 | 54 | 1009.8 |
| 20260504233014 | 66 | 142 | 2.6 | 6.1 | 0.00 | 0.00 | 0.00 | 53 | 1009.8 |
| 20260504231510 | 67 | 156 | 2.6 | 5.2 | 0.00 | 0.00 | 0.00 | 51 | 1009.7 |
| 20260504224523 | 68 | 320 | 0.9 | 5.2 | 0.00 | 0.00 | 0.00 | 51 | 1009.8 |
| 20260504223012 | 69 | 134 | 1.7 | 5.2 | 0.00 | 0.00 | 0.00 | 49 | 1009.7 |
| 20260504221516 | 71 | 138 | 3.5 | 6.1 | 0.00 | 0.00 | 0.00 | 47 | 1009.7 |
| 20260504220022 | 72 | 142 | 3.5 | 9.6 | 0.00 | 0.00 | 0.00 | 45 | 1009.6 |
| 20260504214514 | 72 | 163 | 5.2 | 10.4 | 0.00 | 0.00 | 0.00 | 43 | 1009.7 |
| 20260504211516 | 72 | 181 | 4.3 | 8.7 | 0.00 | 0.00 | 0.00 | 46 | 1009.5 |
| 20260504210013 | 71 | 165 | 5.2 | 13.9 | 0.00 | 0.00 | 0.00 | 44 | 1009.6 |
| 20260504204524 | 72 | 157 | 3.5 | 13.0 | 0.00 | 0.00 | 0.00 | 43 | 1009.7 |
| 20260504203025 | 71 | 202 | 7.0 | 14.8 | 0.00 | 0.00 | 0.00 | 46 | 1009.9 |